www.pogodaiklimat.ru

Погода и климат >> Архив погоды >> Россия >> Приморский край >> Хороль


ПОГОДА в Хороле

  • Прогноз погоды в Хороле
  • Монитор погоды в Хороле

АРХИВ ПОГОДЫ в Хороле

Время (UTC), дата Ветер
(напр.,м/с)
 
Видим.   Явления Облачность Т
(С)
Тd
(С)
f
(%)
Тe
(С)
Тes
(С)
Комфортность P
(гПа)
Po
(гПа)
Тmin
(С)
Tmax
(С)
R
(мм)
R24
(мм)
S
(см)
09 11.02 ЮВ 1 10 км дым 5/0
[Ci sp]
-11.5 -23.9 35 -14 -14 1028.9 1012.0 -7.8
12 11.02 Ю 2
{6}
н/о н/о -14.3 -24.1 43 -19 1029.1 1012.0
15 11.02 ЮЗ 2 20 км 2 балла -13.2 -25.4 35 -18 -18 1029.0 1012.0
18 11.02 З 4 н/о н/о -12.8 -23.8 39 -20 1030.3 1013.3
21 11.02 ЮЗ 2 20 км ясно -14.4 -25.1 40 -19 -19 1030.6 1013.4 -15.3
00 12.02 З 4
{8}
н/о н/о -13.0 -25.1 35 -20 -20 1032.5 1015.4 -15.8
03 12.02 СЗ 4
{11}
н/о н/о -9.4 -26.2 24 -16 1032.8 1016.0
06 12.02 СЗ 3 н/о н/о -8.0 -26.4 21 -13 1031.4 1014.7
09 12.02 штиль 0 10 км дым 4/0
[Ci sp]
-11.7 -27.7 25 -12 -12 1031.6 1014.7 -7.9
12 12.02 Ю 2
{11}
н/о н/о -15.4 -23.7 49 -20 1033.2 1016.0
15 12.02 З 3 20 км 2 балла -13.9 -26.0 35 -20 -20 1033.1 1016.0
18 12.02 ЮЗ 1 н/о н/о -15.1 -25.6 40 -18 1033.2 1016.0
21 12.02 З 3 20 км ясно -15.4 -26.0 40 -22 -22 1031.8 1014.5 -17.2
00 13.02 З 5
{7}
н/о н/о -12.2 -25.2 33 -20 -20 1031.9 1014.9
03 13.02 С 2 20 км ясно -7.2 -24.3 24 -11 -4 1031.4 1014.7
06 13.02 СВ 2 н/о н/о -6.7 -23.4 25 -10 1029.9 1013.3
09 13.02 СЗ 2 20 км ясно -8.8 -24.8 26 -13 -13 1031.5 1014.7 -6.2
12 13.02 З 3
{9}
н/о н/о -10.8 -24.2 32 -17 1032.9 1016.0
15 13.02 З 4 20 км ясно -11.4 -23.8 35 -18 -18 1032.9 1016.0
18 13.02 З 4 н/о н/о -11.5 -24.9 32 -18 1033.0 1016.0
21 13.02 З 3 20 км 4/0
[Ci sp]
-12.6 -26.6 30 -19 -19 1032.8 1015.7 -12.8
00 14.02 З 4
{9}
н/о н/о -10.0 -25.4 27 -17 -17 1033.1 1016.2 -12.8
03 14.02 З 3
{10}
50 км ясно -4.3 -27.0 15 -8 -3 1032.5 1016.0
06 14.02 СЗ 4 н/о н/о -2.0 -27.6 12 -6 1029.6 1013.3
09 14.02 Ю 1 20 км 3/0
[Ci fib]
-5.9 -25.2 20 -7 -7 1029.9 1013.3 -1.9
12 14.02 З 3
{10}
н/о н/о -8.6 -24.6 26 -14 1030.0 1013.3
15 14.02 З 1 20 км ясно -9.7 -25.2 27 -12 -12 1028.8 1012.0
18 14.02 ЮЗ 1 н/о н/о -10.5 -24.0 32 -13 1027.5 1010.7
21 14.02 штиль 0 20 км 3/0
[Ci sp]
-14.1 -23.5 45 -14 -14 1025.1 1008.0 -14.5
00 15.02 штиль 0
{4}
н/о н/о -10.6 -22.0 39 -11 -11 1023.5 1006.7
03 15.02 В 1 н/о н/о -5.4 -21.4 27 -7 1021.7 1005.3
06 15.02 СВ 1 н/о н/о -3.9 -23.0 21 -5 1019.0 1002.7
09 15.02 В 1 20 км 10/0
[As op]
-6.0 -21.9 27 -7 -7 1019.1 1002.7 -3.6
12 15.02 З 2
{4}
н/о н/о -9.2 -21.8 35 -13 1019.3 1002.7
15 15.02 З 3 20 км 5 баллов -9.4 -18.6 47 -15 -15 1020.6 1004.0
18 15.02 З 4 н/о н/о -10.1 -19.5 46 -17 1019.3 1002.7
21 15.02 З 3 20 км 3/0
[Ci fib]
-10.4 -18.8 50 -16 -16 1019.0 1002.3 -11.3
00 16.02 З 3
{7}
н/о н/о -8.5 -16.1 54 -14 -14 1019.8 1003.2
03 16.02 З 4 10 км ясно -3.1 -20.3 25 -8 -3 1018.9 1002.7
06 16.02 СЗ 3
{10}
н/о н/о -1.0 -20.0 22 -5 1016.0 1000.0
09 16.02 З 2 20 км ясно -4.5 -20.2 28 -8 -8 1016.2 1000.0 -0.9
12 16.02 З 4
{10}
н/о н/о -5.6 -20.8 29 -11 1016.3 1000.0
15 16.02 З 6 20 км ясно -6.3 -19.9 33 -14 -14 1016.4 1000.0
18 16.02 ЮЗ 2 н/о н/о -8.3 -18.9 42 -12 1016.5 1000.0
21 16.02 ЮЗ 2 20 км 4/0
[Ci sp]
-8.1 -19.4 40 -12 -12 1015.3 998.8 -9.6
00 17.02 З 3
{9}
н/о н/о -4.5 -18.6 32 -9 -9 1015.7 999.4
03 17.02 З 4 50 км 7 баллов +1.0 -18.9 21 -3 -2 1014.6 998.7
06 17.02 З 6
{11}
н/о н/о +3.9 -17.6 19 -0 1013.0 997.3
09 17.02 СЗ 3
{11}
20 км 3/0
[Ci fib]
-1.4 -17.5 28 -5 -5 1016.1 1000.0 +3.9
12 17.02 З 3
{11}
н/о н/о -3.0 -17.0 33 -7 1018.9 1002.7
15 17.02 З 3 20 км ясно -3.5 -17.1 34 -8 -8 1020.2 1004.0
18 17.02 З 2 н/о н/о -4.9 -16.1 41 -8 1021.7 1005.3
21 17.02 З 2 20 км ясно -5.1 -15.9 42 -9 -9 1020.7 1004.3 -6.4
00 18.02 Ю 2
{7}
н/о н/о -1.8 -15.8 33 -5 -5 1021.7 1005.5 -6.5
03 18.02 ЮЗ 4 50 км ясно +3.9 -15.9 22 +1 +5 1022.6 1006.7
06 18.02 ЮЗ 4 н/о н/о +6.6 -18.2 15 +4 1019.7 1004.0

 

Местоположение метеостанции Хороль (Приморский край, Россия): широта 44.43 долгота 132.00 высота над уровнем моря 127 м.

В архиве по умолчанию представлена погода в Хороле за последнюю неделю. Архивные данные за месяц целиком и за предыдущие месяцы, начиная с января 2011 года, Вы можете получить, выбрав интересующий диапазон дат из раскрывающегося списка и нажав кнопку "Ввод!".


*Определитесь, кто Вы:
робот инопланетянин человек

Внимание! Время в таблицах - всемирное. Для получения местного времени необходимо прибавить поправку, которая равна 10 ч.

Смотрите также архив погоды в соседних городах и на ближайших метеорологических станциях:

Погода в Астраханке (Приморский край, Россия) (32 км)
Погода в Пограничном (Приморский край, Россия) (56 км)
Погода в Тимирязевском (Приморский край, Россия) (62 км)
Погода в Спасск-Дальнем (Приморский край, Россия) (67 км)
Погода в Суйфэньхэ (Хэйлунцзян, Китай) (68 км)
Погода в Полтавке (Приморский край, Россия) (71 км)
Погода в Турьем Роге (Приморский край, Россия) (87 км)
Погода в Свиягино (Приморский край, Россия) (89 км)
Погода в Анучино (Приморский край, Россия) (95 км)
Погода в Многоудобном (Приморский край, Россия) (113 км)

Пояснения к столбцам:

Ветер - указаны скорость ветра в м/с - средняя за 10 мин, порывы в срок и между сроками (в фигурных скобках) и направление, откуда дует ветер: С - северный, СВ - северо-восточный, В - восточный, ЮВ - юго-восточный, Ю - южный, ЮЗ - юго-западный, З - западный, СЗ - северо-западный.
Видимость - горизонтальная дальность видимости в метрах или километрах. При видимости от 1 до 10 км при отсутствии осадков обычно наблюдается дымка, при ухудшении видимости до 1 км и менее - туман. В сухую погоду видимость может ухудшаться дымом, пылью или мглою.
Явления - указаны атмосферные явления, наблюдавшиеся в срок или в последний час перед сроком; фигурными скобками обозначены явления, наблюдавшиеся между сроками (за 1-3 часа до срока); квадратными скобками обозначены град или гололедные отложения с указанием их диаметра в мм.
Облачность - указаны через наклонную черту общая и нижняя облачность в баллах и высота нижней границы облаков в метрах; квадратными скобками обозначены формы облаков: Ci - перистые, Cs - перисто-слоистые, Cc - перисто-кучевые, Ac - высококучевые, As - высокослоистые, Sc - слоисто-кучевые, Ns - слоисто-дождевые, Cu - кучевые, Cb - кучево-дождевые. Подробнее классификацию облаков см. в Атласе облаков (PDF).
T - Температура воздуха - температура, измеренная на высоте 2 м над землей.
Td - Температура точки росы - температура, при понижении до которой содержащийся в воздухе водяной пар достигнет насыщения.
f - Относительная влажность воздуха - влажноcть воздуха, измеренная на высоте 2 м над землей.
Te - Эффективная температура - температура, которую ощущает одетый по сезону человек в тени. Характеристика душности погоды. При расчете учитывается влияние влажности воздуха и скорости ветра на теплоощущения человека.
Tes - Эффективная температура на солнце - температура, которую ощущает человек, с поправкой на солнечный нагрев. Характеристика знойности погоды. Зависит от высоты солнца над горизонтом, облачности и скорости ветра. Ночью, в пасмурную погоду, а также при ветре 12 м/с и более поправка равна нулю.
P - Атмосферное давление - приведенное к уровню моря атмосферное давление.
Po - Атмосферное давление - измеренное на уровне метеостанции атмосферное давление.
Tmin - Минимальная температура - минимум температуры воздуха на высоте 2 м над землей.
Tmax - Максимальная температура - максимум температуры воздуха на высоте 2 м над землей.
R - Количество осадков - Количество выпавших осадков за период времени, мм. При наведении курсора мыши на число - период времени, за который выпало указанное количество осадков.
R24 - Количество осадков - Количество выпавших осадков за 24 часа, мм.
S - Снежный покров - Высота снежного покрова, см. При наведении курсора мыши на число - состояние снежного покрова и степень покрытия местности в баллах.